Weather in Gerze

Turkey     41°48′07″N   35°11′30″E
temp.,
°C
wind,
m/s
gust,
m/s
humid.,
%
clouds,
%
prec.,
mm/h
press.,
hPa
HPBL,
m
20 january, wed
wed2000:00−2wsw238881 3.6 1024219
03:00−1wsw228890 5.3 1024221
06:00−2wsw228596 1.3 1025164
09:00−1sw336672 1.3 1026211
12:00+2wsw135356 0.0 1027952
15:00+3w135028 0.0 10251107
18:00+1sw115685 0.0 1027199
21:000sw335886 0.0 1027121
21 january, thu
thu2100:00+1sw565759 0.0 1029199
03:00+1sw675976 0.0 1028201
06:00+1sw675969 0.0 1029192
09:00+2sw676175 0.0 1030199
12:00+4sw566285 0.0 1030270
15:00+6ssw556086 0.0 1029282
18:00+3ssw556149 0.0 1030142
21:00+3sw666125 0.0 1031132
22 january, fri
fri2200:00+3sw665946 0.0 1031119
03:00+3sw665633 0.0 1030122
06:00+3sw6754100 0.0 1029134
09:00+4sw675399 0.0 1029161
12:00+8sw564944 0.0 1028223
15:00+9sw455165 0.0 1026210
18:00+5sw5655100 0.0 1026106
21:00+5sw665550 0.0 1027117
23 january, sat
sat2300:00+5sw77540 0.0 1026138
03:00+6sw775422 0.0 1026128
06:00+6sw775579 0.0 1025127
09:00+6sw785481 0.0 1025127
12:00+10sw575113 0.0 1024176
15:00+11sw56537 0.0 1022190
18:00+8sw66600 0.0 1021106
21:00+7sw776111 0.0 1021127
24 january, sun
sun2400:00+7sw786045 0.0 1020142
03:00+7sw785824 0.0 1020141
06:00+8sw7854100 0.0 1018152
09:00+7sw785498 0.0 1018149
12:00+11sw674893 0.0 1017207
15:00+11sw574797 0.0 1015246
18:00+9sw7848100 0.0 1016162
21:00+9sw81048100 0.0 1017196